Weather Roundup
Issued by NWS Chicago, IL

Home | Current Version | Previous Version | Text Only | Print | Product List | Glossary On
Versions: 1 2 3 4 5 6 7 8 9 10 11 12 13 14 15 16 17 18 19 20 21 22 23 24 25 26 27 28 29 30 31 32 33 34 35 36 37 38 39 40 41 42 43 44 45 46 47 48 49 50
000
NZUS59 KLOT 171508
HRRLOT

CHICAGO AREA WEATHER ROUNDUP
NATIONAL WEATHER SERVICE CHICAGO/ROMEOVILLE IL
900 AM CST SUN DEC 17 2017

NOTE: "FAIR" INDICATES FEW OR NO CLOUDS BELOW 12,000 FEET WITH NO
SIGNIFICANT WEATHER AND/OR OBSTRUCTIONS TO VISIBILITY.

* THESE STATIONS ARE NOT UNDER NWS QUALITY CONTROL. THEY ALSO MAY NOT
  REPORT WEATHER SUCH AS PRECIPITATION OR FOG.

ILZ005-006-012>014-019>023-171600-
NORTHEAST ILLINOIS

CITY           SKY/WX    TMP DP  RH WIND       PRES   REMARKS
OHARE          CLOUDY    37  33  85 NE9       30.05F FOG
MIDWAY         CLOUDY    38  35  89 N6        30.04F
AURORA         CLOUDY    35  33  92 NE9       30.05R FOG     WCI  28
LANSING*       CLOUDY    32  30  92 CALM      30.05S
JOLIET*        PTSUNNY   34  32  92 CALM      30.06R
WAUKEGAN       CLOUDY    35  32  88 E13       30.06F FOG     WCI  26
DUPAGE AIRPORT CLOUDY    35  34  96 NE8       30.04F FOG     WCI  29
WHEELING       CLOUDY    37  34  89 E7        30.07F FOG
KANKAKEE*      CLOUDY    35  30  82 SE6       30.07R WCI  30
MORRIS*        CLOUDY    32  28  85 CALM      30.05R
LEWIS AIRPORT* CLOUDY    35  34  96 E3        30.05R FOG
NORTHERLY ISL    N/A     35  32  88 N3          N/A
$$

WIZ051-052-058>065-066-070>072-171600-
SOUTHEAST WISCONSIN

CITY           SKY/WX    TMP DP  RH WIND       PRES   REMARKS
MILWAUKEE      CLOUDY    34  31  88 E9        30.10S FOG     WCI  27
KENOSHA*       CLOUDY    35  31  85 NE13      30.07F FOG     WCI  26
RACINE*        CLOUDY    34  31  88 E10       30.10F FOG     WCI  26
BURLINGTON     CLOUDY    50  50 100 E8        30.07F FOG
WAUKESHA       CLOUDY    30  28  93 E9        30.09F FOG     WCI  22
WEST BEND      CLOUDY    30  30 100 E9        30.11S WCI  22
$$

INZ001>003-010>013-019-020-171600-
NORTHWEST INDIANA

CITY           SKY/WX    TMP DP  RH WIND       PRES   REMARKS
GARY*          CLOUDY    34  30  86 SE7       30.05F WCI  28
MICHIGAN CITY* NOT AVBL
RENSSELAER*    NOT AVBL
VALPARAISO     CLOUDY    34  30  85 E6        30.05F WCI  29
$$

LMZ740>746-171600-
SOUTHERN LAKE MICHIGAN

STATION/POSITION TIME  SKY/WX   TEMP WIND        PRES    VSBY
                                AIR  DIR/SP/G
                 (UTC)          (F)  (DEG/KT/KT) (MB)    (MI)
HARRISON CRIB    1440            38   60/  2/  2   N/A
BURNHAM HARBOR   1500            35   60/  2/  4   N/A
CALUMET HARBOR   1448            33  360/  2/  3 1016.8F
BURNS HARBOR     1440            36   CALM  /  3 1017.9F
MICHIGAN CITY    1440            33  110/  6/  8   N/A
$$

ABBREVIATIONS USED IN REMARKS
   TC - TEMPERATURE IN CELSIUS
  WCI - WIND CHILL INDEX
   HX - HEAT INDEX
  VSB - VISIBILITY
$$




USA.gov is the U.S. government's official web portal to all federal, state and local government web resources and services.